KEPLER-20

导读 | 星芒AI

KEPLER-20 是 NASA 开发的太空望远镜,于2009年发射,旨在探测太阳系外类地行星。它通过“凌日法”观测恒星亮度变化,以发现潜在的行星。KEPLER-20 在其任务期间发现了多颗系外行星,包括一些位于宜居带的候选行星。该卫星极大地推动了人类对宇宙中生命可能性的理解,并为后续行星探测任务奠定了基础。2018年,由于推进剂耗尽,任务正式结束。

基本信息
目录编号:
56217
目录名称:
KEPLER-20
国际标识:
2023-054AR
轨道中心:
EARTH
卫星名称:
KEPLER-20
卫星全名:
--
卫星状态:
已陨落 最后检测时间 2025-09-19
发射日期:
2023-04-15 UTC
国别 :
加拿大 (CA)
星等 :
--
轨道信息
数据来源 国际轨道数据
星历时间: 2025-09-19T12:06:44+0800
轨道信息已过期87天
半长轴: 6544.78km
偏心率: 0.0010458
轨道倾角: 97.284°
近地点辐角 233.223°
升交点赤经 172.579°
平近点角 126.811°
近地点: 159.8km
远地点: 173.49km
周期: 87.822分钟
每日圈数: 16.396841
详细信息
使用方式:
暂无